Powrót do katalogu

FENGYUN 1C DEB

LostSSO
NORAD 31310·DEBRIS·🇨🇳 China

Wystrzelony May 10, 1999 z Taiyuan Satellite Launch Center

Loading…

Następne Przeloty (najbliższe 24 godziny)

TLE

NieaktualneSource: Space-Track

Epoka: May 10, 2024, 11:57 UTC

1 31310U 99025BPN 24131.49825054  .00016027  00000-0  70863-2 0  9993
2 31310  98.8938  31.4551 0090783 292.8772 243.3550 14.21077066872764

Śledź FENGYUN 1C DEB w czasie rzeczywistym z AllMySat

Download on the App Store